Content
SEND FEEDBACK

Daily
Averages
Monthly
Summary
United States of America

BARRINGTON, ILLINOIS


Home > North America > United States > Illinois
Elevation: 810 feet     Latitude: 42 10N     Longitude: 088 09W

WEATHER
 
SELECT A DAY
Number of Records: 196,551;   Date Range: 1/1/95 - 7/26/14
 
SHARE

PRINT THIS DATA

[ ← Previous Day ]
WEATHER ALMANAC - FEBRUARY 24, 2013
[ Next Day → ]
[ °C ]   °F
Weather ElementAverageHighLow
Temperature27.8 °F37 °F (2:51 pm)17.1 °F (6:51 am)
Dewpoint18.4 °F21.9 °F (7:51 pm)12.9 °F (5:51 am)
Humidity69.3 %85 % (2:51 am)50 % (2:51 pm)
Barometer30.09 in30.15 in (10:51 pm)29.98 in (1:51 am)
Wind Speed4.1 mph6.9 mph (1:51 am)
Weather ElementAverage
Visibility10 mi
Wind DirectionSSW (210 °)

Weather ElementTotal
Precipitation---
Heating Degree Days38 (Base 65)
Averaged from 23 records on February 24, 2013
WEATHER CONDITIONS BREAKOUT
WIND DIRECTION BREAKOUT
WEATHER BY HOUR - FEBRUARY 24, 2013
[ °C ]   °F
Local TimeTemperatureDewpointHumidityBarometerVisibilityWind DirectionWind SpeedGust SpeedPrecipitationEventsConditions
1:51 AM21.0 °F16.0 °F81 %29.98 in10.0 miWest (280°)6.9 mphClear
2:51 AM19.0 °F15.1 °F85 %29.99 in10.0 miWest (280°)5.8 mphClear
3:51 AM19.0 °F14.0 °F81 %30.00 in10.0 miWest (280°)6.9 mphClear
4:51 AM19.0 °F14.0 °F81 %30.02 in10.0 miWest (270°)6.9 mphClear
5:51 AM18.0 °F12.9 °F81 %30.04 in10.0 miWest (280°)5.8 mphClear
6:51 AM17.1 °F12.9 °F84 %30.07 in10.0 miWest (270°)5.8 mphPartly Cloudy
7:51 AM19.0 °F14.0 °F81 %30.09 in10.0 miWSW (250°)6.9 mphPartly Cloudy
8:51 AM23.0 °F16.0 °F74 %30.10 in10.0 miNW (310°)4.6 mphPartly Cloudy
9:51 AM28.0 °F18.0 °F66 %30.11 in10.0 miWest (260°)5.8 mphPartly Cloudy
10:51 AM30.9 °F19.9 °F64 %30.12 in10.0 miWest (270°)6.9 mphPartly Cloudy
11:51 AM33.1 °F19.9 °F59 %30.12 in10.0 miWSW (240°)3.5 mphScattered Clouds
12:51 PM35.1 °F21.0 °F57 %30.11 in10.0 miWest (260°)5.8 mphScattered Clouds
1:51 PM36.0 °F21.0 °F55 %30.10 in10.0 miWest (260°)5.8 mphScattered Clouds
2:51 PM37.0 °F19.9 °F50 %30.10 in10.0 miWSW (240°)3.5 mphScattered Clouds
3:51 PM37.0 °F19.9 °F50 %30.10 in10.0 miCalmPartly Cloudy
4:51 PM37.0 °F21.0 °F52 %30.11 in10.0 miWest (270°)3.5 mphScattered Clouds
5:51 PM34.0 °F21.0 °F59 %30.12 in10.0 miCalmScattered Clouds
6:51 PM33.1 °F21.0 °F61 %30.13 in10.0 miSW (220°)3.5 mphPartly Cloudy
7:51 PM32.0 °F21.9 °F66 %30.14 in10.0 miWSW (240°)3.5 mphPartly Cloudy
8:51 PM30.9 °F21.0 °F67 %30.14 in10.0 miNorth (350°)3.5 mphPartly Cloudy
9:51 PM26.1 °F21.0 °F81 %30.14 in10.0 miCalmPartly Cloudy
10:51 PM28.0 °F21.9 °F78 %30.15 in10.0 miCalmPartly Cloudy
11:51 PM25.0 °F19.9 °F81 %30.15 in10.0 miCalmPartly Cloudy
Hourly data recorded from KORD, located miles away from Barrington, Illinois







STORIES FROM OUR PARTNERS